Time,TemperatureF,DewpointF,PressureIn,WindDirection,WindDirectionDegrees,WindSpeedMPH,WindSpeedGustMPH,Humidity,HourlyPrecipIn,Conditions,Clouds,dailyrainin,SoftwareType,DateUTC
2013-10-18 00:01:00,60.3,57.4,21.90,SE,135,6.0,10.0,90,0.11,,,0.15,meteohub,2013-10-18 04:01:00,
2013-10-18 00:02:00,60.3,57.4,21.89,SE,135,6.0,10.0,90,0.11,,,0.15,meteohub,2013-10-18 04:02:00,
2013-10-18 00:03:00,60.3,57.4,21.90,SE,135,10.0,10.0,90,0.11,,,0.15,meteohub,2013-10-18 04:03:00,
2013-10-18 00:05:00,60.3,57.4,21.90,East,90,6.0,10.0,90,0.12,,,0.01,meteohub,2013-10-18 04:05:00,
2013-10-18 00:06:00,60.3,57.4,21.90,East,90,4.0,10.0,90,0.12,,,0.01,meteohub,2013-10-18 04:06:00,
2013-10-18 00:11:00,60.3,57.6,21.90,SW,225,3.0,10.0,91,0.13,,,0.02,meteohub,2013-10-18 04:11:00,
2013-10-18 00:16:00,60.1,57.4,21.90,East,90,4.0,10.0,91,0.15,,,0.06,meteohub,2013-10-18 04:16:00,
2013-10-18 00:21:00,59.9,57.2,21.90,East,90,3.0,6.0,91,0.20,,,0.11,meteohub,2013-10-18 04:21:00,
2013-10-18 00:26:00,59.9,57.2,21.90,SSE,158,8.0,9.0,91,0.26,,,0.15,meteohub,2013-10-18 04:26:00,
2013-10-18 00:31:00,59.4,56.7,21.90,West,270,2.0,9.0,91,0.32,,,0.21,meteohub,2013-10-18 04:31:00,
2013-10-18 00:36:00,59.4,56.7,21.89,South,180,11.0,11.0,91,0.32,,,0.22,meteohub,2013-10-18 04:36:00,
2013-10-18 00:41:00,59.5,56.7,21.89,West,270,2.0,11.0,90,0.32,,,0.24,meteohub,2013-10-18 04:41:00,
2013-10-18 00:46:00,59.5,56.7,21.90,NW,315,2.0,11.0,90,0.32,,,0.24,meteohub,2013-10-18 04:46:00,
2013-10-18 00:52:00,59.5,56.7,21.90,South,180,2.0,11.0,90,0.30,,,0.24,meteohub,2013-10-18 04:52:00,
2013-10-18 00:57:00,59.7,56.8,21.90,West,270,6.0,6.0,90,0.26,,,0.24,meteohub,2013-10-18 04:57:00,
2013-10-18 01:02:00,59.7,56.8,21.90,South,180,2.0,8.0,90,0.24,,,0.24,meteohub,2013-10-18 05:02:00,
2013-10-18 01:07:00,59.5,56.7,21.90,SW,225,4.0,8.0,90,0.22,,,0.24,meteohub,2013-10-18 05:07:00,
2013-10-18 01:12:00,59.5,56.7,21.90,West,270,4.0,8.0,90,0.21,,,0.24,meteohub,2013-10-18 05:12:00,
2013-10-18 01:17:00,59.5,56.7,21.90,NW,315,4.0,6.0,90,0.18,,,0.24,meteohub,2013-10-18 05:17:00,
2013-10-18 01:22:00,59.9,56.3,21.90,SW,225,8.0,11.0,88,0.13,,,0.24,meteohub,2013-10-18 05:22:00,
2013-10-18 01:27:00,59.9,55.4,21.90,ENE,68,4.0,15.0,85,0.07,,,0.24,meteohub,2013-10-18 05:27:00,
2013-10-18 01:32:00,59.9,54.3,21.91,West,270,5.0,15.0,82,0.01,,,0.24,meteohub,2013-10-18 05:32:00,
2013-10-18 01:38:00,59.9,54.1,21.91,WNW,293,4.0,15.0,81,0.01,,,0.24,meteohub,2013-10-18 05:38:00,
2013-10-18 01:43:00,59.4,53.6,21.91,West,270,4.0,11.0,81,0.00,,,0.24,meteohub,2013-10-18 05:43:00,
2013-10-18 01:48:00,59.0,53.2,21.91,West,270,5.0,10.0,81,0.00,,,0.24,meteohub,2013-10-18 05:48:00,
2013-10-18 01:53:00,59.0,52.9,21.91,West,270,4.0,9.0,80,0.00,,,0.24,meteohub,2013-10-18 05:53:00,
2013-10-18 01:58:00,59.0,52.9,21.91,SW,225,3.0,10.0,80,0.00,,,0.24,meteohub,2013-10-18 05:58:00,
2013-10-18 02:03:00,58.5,52.7,21.91,NNW,338,8.0,11.0,81,0.00,,,0.24,meteohub,2013-10-18 06:03:00,
2013-10-18 02:08:00,58.3,52.5,21.92,NW,315,9.0,11.0,81,0.00,,,0.24,meteohub,2013-10-18 06:08:00,
2013-10-18 02:13:00,58.3,51.8,21.93,NW,315,6.0,11.0,79,0.00,,,0.24,meteohub,2013-10-18 06:13:00,
2013-10-18 02:18:00,57.7,51.6,21.93,NW,315,7.0,11.0,80,0.00,,,0.24,meteohub,2013-10-18 06:18:00,
2013-10-18 02:23:00,57.7,51.3,21.93,NW,315,6.0,11.0,79,0.00,,,0.24,meteohub,2013-10-18 06:23:00,
2013-10-18 02:29:00,57.7,50.2,21.94,NW,315,6.0,11.0,76,0.00,,,0.24,meteohub,2013-10-18 06:29:00,
2013-10-18 02:34:00,57.4,49.8,21.93,NW,315,13.0,13.0,76,0.00,,,0.24,meteohub,2013-10-18 06:34:00,
2013-10-18 02:39:00,57.2,49.3,21.94,North,0,7.0,17.0,75,0.00,,,0.24,meteohub,2013-10-18 06:39:00,
2013-10-18 02:44:00,56.8,49.6,21.94,WNW,293,5.0,17.0,77,0.00,,,0.24,meteohub,2013-10-18 06:44:00,
2013-10-18 02:49:00,56.5,49.3,21.94,NW,315,4.0,17.0,77,0.00,,,0.24,meteohub,2013-10-18 06:49:00,
2013-10-18 02:54:00,56.3,48.9,21.94,NW,315,4.0,13.0,76,0.00,,,0.24,meteohub,2013-10-18 06:54:00,
2013-10-18 02:59:00,56.3,48.9,21.94,SW,225,6.0,9.0,76,0.00,,,0.24,meteohub,2013-10-18 06:59:00,
2013-10-18 03:04:00,56.1,48.4,21.94,West,270,3.0,9.0,75,0.00,,,0.24,meteohub,2013-10-18 07:04:00,
2013-10-18 03:09:00,56.1,48.4,21.94,NW,315,7.0,11.0,75,0.00,,,0.24,meteohub,2013-10-18 07:09:00,
2013-10-18 03:14:00,55.9,48.2,21.94,North,0,4.0,11.0,75,0.00,,,0.24,meteohub,2013-10-18 07:14:00,
2013-10-18 03:19:00,55.6,47.8,21.94,SW,225,7.0,11.0,75,0.00,,,0.24,meteohub,2013-10-18 07:19:00,
2013-10-18 03:25:00,55.8,47.7,21.94,NW,315,17.0,17.0,74,0.00,,,0.24,meteohub,2013-10-18 07:25:00,
2013-10-18 03:30:00,55.9,47.5,21.94,North,0,13.0,17.0,73,0.00,,,0.24,meteohub,2013-10-18 07:30:00,
2013-10-18 03:35:00,55.6,47.5,21.94,WNW,293,9.0,17.0,74,0.00,,,0.24,meteohub,2013-10-18 07:35:00,
2013-10-18 03:40:00,55.2,47.5,21.94,NNW,338,6.0,13.0,75,0.00,,,0.24,meteohub,2013-10-18 07:40:00,
2013-10-18 03:45:00,55.0,47.3,21.94,NW,315,6.0,13.0,75,0.00,,,0.24,meteohub,2013-10-18 07:45:00,
2013-10-18 03:50:00,54.9,47.5,21.94,West,270,7.0,11.0,76,0.00,,,0.24,meteohub,2013-10-18 07:50:00,
2013-10-18 03:55:00,54.7,47.3,21.94,West,270,7.0,11.0,76,0.00,,,0.24,meteohub,2013-10-18 07:55:00,
2013-10-18 04:00:00,54.5,47.1,21.94,West,270,6.0,9.0,76,0.00,,,0.24,meteohub,2013-10-18 08:00:00,
2013-10-18 04:05:00,54.3,47.3,21.94,NW,315,4.0,9.0,77,0.00,,,0.24,meteohub,2013-10-18 08:05:00,
2013-10-18 04:11:00,54.3,46.9,21.95,West,270,11.0,11.0,76,0.00,,,0.24,meteohub,2013-10-18 08:11:00,
2013-10-18 04:16:00,54.7,45.9,21.96,NW,315,16.0,16.0,72,0.00,,,0.24,meteohub,2013-10-18 08:16:00,
2013-10-18 04:21:00,54.7,45.9,21.96,North,0,4.0,16.0,72,0.00,,,0.24,meteohub,2013-10-18 08:21:00,
2013-10-18 04:26:00,54.5,45.7,21.96,NW,315,4.0,16.0,72,0.00,,,0.24,meteohub,2013-10-18 08:26:00,
2013-10-18 04:31:00,54.5,46.0,21.96,NW,315,8.0,16.0,73,0.00,,,0.24,meteohub,2013-10-18 08:31:00,
2013-10-18 04:36:00,54.5,46.0,21.96,NW,315,6.0,13.0,73,0.00,,,0.24,meteohub,2013-10-18 08:36:00,
2013-10-18 04:41:00,54.3,45.9,21.97,North,0,9.0,13.0,73,0.00,,,0.24,meteohub,2013-10-18 08:41:00,
2013-10-18 04:46:00,54.3,46.2,21.97,North,0,4.0,15.0,74,0.00,,,0.24,meteohub,2013-10-18 08:46:00,
2013-10-18 04:51:00,54.1,46.4,21.97,North,0,5.0,15.0,75,0.00,,,0.24,meteohub,2013-10-18 08:51:00,
2013-10-18 04:56:00,54.1,46.4,21.97,NE,45,4.0,15.0,75,0.00,,,0.24,meteohub,2013-10-18 08:56:00,
2013-10-18 05:01:00,54.1,46.0,21.97,North,0,8.0,8.0,74,0.00,,,0.24,meteohub,2013-10-18 09:01:00,
2013-10-18 05:06:00,54.1,46.0,21.97,West,270,5.0,14.0,74,0.00,,,0.24,meteohub,2013-10-18 09:06:00,
2013-10-18 05:12:00,54.1,46.0,21.98,NW,315,8.0,14.0,74,0.00,,,0.24,meteohub,2013-10-18 09:12:00,
2013-10-18 05:17:00,54.1,46.4,21.99,NW,315,7.0,14.0,75,0.00,,,0.24,meteohub,2013-10-18 09:17:00,
2013-10-18 05:22:00,53.8,46.8,21.99,NNW,338,9.0,11.0,77,0.00,,,0.24,meteohub,2013-10-18 09:22:00,
2013-10-18 05:27:00,53.2,46.9,21.99,NW,315,12.0,12.0,79,0.00,,,0.24,meteohub,2013-10-18 09:27:00,
2013-10-18 05:32:00,52.7,47.1,21.99,North,0,8.0,12.0,81,0.00,,,0.24,meteohub,2013-10-18 09:32:00,
2013-10-18 05:37:00,52.3,46.9,21.99,West,270,5.0,12.0,82,0.00,,,0.24,meteohub,2013-10-18 09:37:00,
2013-10-18 05:42:00,52.2,46.6,22.00,NW,315,9.0,12.0,81,0.00,,,0.24,meteohub,2013-10-18 09:42:00,
2013-10-18 05:47:00,52.2,46.2,22.00,North,0,7.0,12.0,80,0.00,,,0.24,meteohub,2013-10-18 09:47:00,
2013-10-18 05:52:00,52.2,46.2,22.00,NE,45,5.0,10.0,80,0.00,,,0.24,meteohub,2013-10-18 09:52:00,
2013-10-18 05:57:00,52.0,45.7,22.01,NE,45,5.0,10.0,79,0.00,,,0.24,meteohub,2013-10-18 09:57:00,
2013-10-18 06:02:00,52.2,45.5,22.00,NNW,338,9.0,9.0,78,0.00,,,0.24,meteohub,2013-10-18 10:02:00,
2013-10-18 06:07:00,52.2,45.1,22.01,NW,315,4.0,11.0,77,0.00,,,0.24,meteohub,2013-10-18 10:07:00,
2013-10-18 06:12:00,52.0,45.0,22.01,North,0,6.0,11.0,77,0.00,,,0.24,meteohub,2013-10-18 10:12:00,
2013-10-18 06:17:00,52.0,44.6,22.01,NW,315,9.0,11.0,76,0.00,,,0.24,meteohub,2013-10-18 10:17:00,
2013-10-18 06:22:00,52.0,44.2,22.01,NW,315,4.0,11.0,75,0.00,,,0.24,meteohub,2013-10-18 10:22:00,
2013-10-18 06:27:00,52.0,44.2,22.01,North,0,9.0,11.0,75,0.00,,,0.24,meteohub,2013-10-18 10:27:00,
2013-10-18 06:32:00,52.0,44.2,22.01,NNE,23,4.0,11.0,75,0.00,,,0.24,meteohub,2013-10-18 10:32:00,
2013-10-18 06:37:00,51.8,44.4,22.01,NW,315,5.0,11.0,76,0.00,,,0.24,meteohub,2013-10-18 10:37:00,
2013-10-18 06:42:00,51.8,44.1,22.01,NNW,338,7.0,9.0,75,0.00,,,0.24,meteohub,2013-10-18 10:42:00,
2013-10-18 06:47:00,51.8,44.4,22.01,North,0,15.0,15.0,76,0.00,,,0.24,meteohub,2013-10-18 10:47:00,
2013-10-18 06:52:00,51.8,44.4,22.01,NW,315,5.0,15.0,76,0.00,,,0.24,meteohub,2013-10-18 10:52:00,
2013-10-18 06:57:00,51.6,44.6,22.02,NW,315,8.0,15.0,77,0.00,,,0.24,meteohub,2013-10-18 10:57:00,
2013-10-18 07:02:00,51.4,44.8,22.02,North,0,6.0,15.0,78,0.00,,,0.24,meteohub,2013-10-18 11:02:00,
2013-10-18 07:07:00,51.3,45.0,22.02,NW,315,2.0,9.0,79,0.00,,,0.24,meteohub,2013-10-18 11:07:00,
2013-10-18 07:12:00,51.3,45.0,22.03,West,270,4.0,8.0,79,0.00,,,0.24,meteohub,2013-10-18 11:12:00,
2013-10-18 07:17:00,51.1,44.4,22.02,NW,315,5.0,11.0,78,0.00,,,0.24,meteohub,2013-10-18 11:17:00,
2013-10-18 07:22:00,51.1,44.1,22.03,NW,315,7.0,11.0,77,0.00,,,0.24,meteohub,2013-10-18 11:22:00,
2013-10-18 07:27:00,51.1,44.1,22.03,NW,315,10.0,11.0,77,0.00,,,0.24,meteohub,2013-10-18 11:27:00,
2013-10-18 07:32:00,51.1,43.7,22.04,West,270,5.0,11.0,76,0.00,,,0.24,meteohub,2013-10-18 11:32:00,
2013-10-18 07:37:00,50.9,43.5,22.04,North,0,11.0,11.0,76,0.00,,,0.24,meteohub,2013-10-18 11:37:00,
2013-10-18 07:42:00,50.9,43.0,22.04,West,270,7.0,14.0,74,0.00,,,0.24,meteohub,2013-10-18 11:42:00,
2013-10-18 07:47:00,50.9,42.6,22.05,NW,315,5.0,14.0,73,0.00,,,0.24,meteohub,2013-10-18 11:47:00,
2013-10-18 07:52:00,50.7,42.4,22.04,NW,315,4.0,14.0,73,0.00,,,0.24,meteohub,2013-10-18 11:52:00,
2013-10-18 07:57:00,50.7,42.1,22.05,NW,315,6.0,13.0,72,0.00,,,0.24,meteohub,2013-10-18 11:57:00,
2013-10-18 08:02:00,50.7,42.4,22.06,NW,315,4.0,13.0,73,0.00,,,0.24,meteohub,2013-10-18 12:02:00,
2013-10-18 08:07:00,50.7,42.4,22.06,WNW,293,7.0,13.0,73,0.00,,,0.24,meteohub,2013-10-18 12:07:00,
2013-10-18 08:12:00,50.7,42.4,22.06,NW,315,5.0,11.0,73,0.00,,,0.24,meteohub,2013-10-18 12:12:00,
2013-10-18 08:17:00,50.7,42.4,22.06,NW,315,14.0,14.0,73,0.00,,,0.24,meteohub,2013-10-18 12:17:00,
2013-10-18 08:22:00,50.7,42.1,22.06,NW,315,8.0,14.0,72,0.00,,,0.24,meteohub,2013-10-18 12:22:00,
2013-10-18 08:27:00,50.7,42.4,22.06,North,0,8.0,17.0,73,0.00,,,0.24,meteohub,2013-10-18 12:27:00,
2013-10-18 08:32:00,50.7,42.1,22.06,WNW,293,11.0,17.0,72,0.00,,,0.24,meteohub,2013-10-18 12:32:00,
2013-10-18 08:37:00,50.5,41.9,22.06,NW,315,7.0,17.0,72,0.00,,,0.24,meteohub,2013-10-18 12:37:00,
2013-10-18 08:42:00,50.5,42.3,22.07,NW,315,8.0,15.0,73,0.00,,,0.24,meteohub,2013-10-18 12:42:00,
2013-10-18 08:47:00,50.5,42.3,22.06,North,0,8.0,15.0,73,0.00,,,0.24,meteohub,2013-10-18 12:47:00,
2013-10-18 08:52:00,50.5,42.3,22.07,WNW,293,5.0,15.0,73,0.00,,,0.24,meteohub,2013-10-18 12:52:00,
2013-10-18 08:57:00,50.5,42.3,22.07,North,0,11.0,12.0,73,0.00,,,0.24,meteohub,2013-10-18 12:57:00,
2013-10-18 09:02:00,50.5,42.3,22.07,WNW,293,11.0,13.0,73,0.00,,,0.24,meteohub,2013-10-18 13:02:00,
2013-10-18 09:07:00,50.5,42.3,22.07,NW,315,4.0,13.0,73,0.00,,,0.24,meteohub,2013-10-18 13:07:00,
2013-10-18 09:12:00,50.5,42.3,22.07,WNW,293,5.0,13.0,73,0.00,,,0.24,meteohub,2013-10-18 13:12:00,
2013-10-18 09:17:00,50.5,41.9,22.08,North,0,5.0,16.0,72,0.01,,,0.25,meteohub,2013-10-18 13:17:00,
2013-10-18 09:22:00,50.7,42.1,22.08,NW,315,8.0,16.0,72,0.01,,,0.25,meteohub,2013-10-18 13:22:00,
2013-10-18 09:27:00,50.7,42.1,22.08,SW,225,4.0,16.0,72,0.01,,,0.25,meteohub,2013-10-18 13:27:00,
2013-10-18 09:32:00,50.9,42.3,22.08,NW,315,11.0,12.0,72,0.01,,,0.25,meteohub,2013-10-18 13:32:00,
2013-10-18 09:37:00,50.9,42.3,22.08,NW,315,10.0,15.0,72,0.01,,,0.25,meteohub,2013-10-18 13:37:00,
2013-10-18 09:42:00,50.7,42.1,22.08,NNW,338,12.0,15.0,72,0.01,,,0.25,meteohub,2013-10-18 13:42:00,
2013-10-18 09:47:00,50.7,42.1,22.08,North,0,8.0,15.0,72,0.01,,,0.25,meteohub,2013-10-18 13:47:00,
2013-10-18 09:52:00,50.7,42.4,22.08,NW,315,6.0,15.0,73,0.01,,,0.25,meteohub,2013-10-18 13:52:00,
2013-10-18 09:57:00,50.7,42.1,22.08,NW,315,6.0,13.0,72,0.01,,,0.25,meteohub,2013-10-18 13:57:00,
2013-10-18 10:02:00,50.9,42.3,22.09,NW,315,8.0,10.0,72,0.01,,,0.25,meteohub,2013-10-18 14:02:00,
2013-10-18 10:07:00,51.1,42.4,22.09,North,0,11.0,12.0,72,0.01,,,0.25,meteohub,2013-10-18 14:07:00,
2013-10-18 10:12:00,51.1,42.4,22.09,NW,315,15.0,15.0,72,0.01,,,0.25,meteohub,2013-10-18 14:12:00,
2013-10-18 10:17:00,51.1,42.1,22.09,NW,315,10.0,15.0,71,0.00,,,0.25,meteohub,2013-10-18 14:17:00,
2013-10-18 10:22:00,51.4,42.4,22.09,NW,315,4.0,15.0,71,0.00,,,0.25,meteohub,2013-10-18 14:22:00,
2013-10-18 10:27:00,52.2,42.6,22.09,North,0,6.0,15.0,70,0.00,,,0.25,meteohub,2013-10-18 14:27:00,
2013-10-18 10:32:00,53.1,43.2,22.08,WNW,293,8.0,11.0,69,0.00,,,0.25,meteohub,2013-10-18 14:32:00,
2013-10-18 10:37:00,53.8,42.6,22.09,NW,315,7.0,13.0,66,0.00,,,0.25,meteohub,2013-10-18 14:37:00,
2013-10-18 10:42:00,54.9,43.3,22.09,North,0,10.0,13.0,65,0.00,,,0.25,meteohub,2013-10-18 14:42:00,
2013-10-18 10:47:00,54.9,42.4,22.09,NW,315,14.0,14.0,63,0.00,,,0.25,meteohub,2013-10-18 14:47:00,
2013-10-18 10:52:00,54.5,42.1,22.09,NW,315,11.0,14.0,63,0.00,,,0.25,meteohub,2013-10-18 14:52:00,
2013-10-18 10:57:00,54.5,41.7,22.09,North,0,18.0,18.0,62,0.00,,,0.25,meteohub,2013-10-18 14:57:00,
2013-10-18 11:02:00,54.1,41.4,22.09,North,0,8.0,18.0,62,0.00,,,0.25,meteohub,2013-10-18 15:02:00,
2013-10-18 11:07:00,54.5,41.4,22.09,NW,315,14.0,18.0,61,0.00,,,0.25,meteohub,2013-10-18 15:07:00,
2013-10-18 11:12:00,54.3,41.2,22.09,North,0,9.0,18.0,61,0.00,,,0.25,meteohub,2013-10-18 15:12:00,
2013-10-18 11:17:00,53.8,40.6,22.09,NW,315,8.0,17.0,61,0.00,,,0.25,meteohub,2013-10-18 15:17:00,
2013-10-18 11:22:00,54.7,41.9,22.09,North,0,10.0,17.0,62,0.00,,,0.25,meteohub,2013-10-18 15:22:00,
2013-10-18 11:27:00,54.1,41.0,22.10,North,0,10.0,17.0,61,0.00,,,0.25,meteohub,2013-10-18 15:27:00,
2013-10-18 11:32:00,54.1,41.0,22.10,NE,45,10.0,17.0,61,0.00,,,0.25,meteohub,2013-10-18 15:32:00,
2013-10-18 11:37:00,54.3,41.2,22.10,West,270,11.0,21.0,61,0.00,,,0.25,meteohub,2013-10-18 15:37:00,
2013-10-18 11:42:00,54.5,40.8,22.10,SW,225,8.0,21.0,60,0.00,,,0.25,meteohub,2013-10-18 15:42:00,
2013-10-18 11:47:00,54.7,41.0,22.10,NW,315,14.0,21.0,60,0.00,,,0.25,meteohub,2013-10-18 15:47:00,
2013-10-18 11:52:00,54.7,40.6,22.10,NNW,338,7.0,17.0,59,0.00,,,0.25,meteohub,2013-10-18 15:52:00,
2013-10-18 11:57:00,55.9,41.9,22.10,SE,135,7.0,17.0,59,0.00,,,0.25,meteohub,2013-10-18 15:57:00,
2013-10-18 12:02:00,55.9,40.5,22.11,NW,315,8.0,14.0,56,0.00,,,0.25,meteohub,2013-10-18 16:02:00,
2013-10-18 12:07:00,55.8,39.9,22.11,West,270,10.0,17.0,55,0.00,,,0.25,meteohub,2013-10-18 16:07:00,
2013-10-18 12:12:00,55.6,40.1,22.10,NW,315,12.0,17.0,56,0.00,,,0.25,meteohub,2013-10-18 16:12:00,
2013-10-18 12:17:00,55.2,39.7,22.11,West,270,6.0,17.0,56,0.00,,,0.25,meteohub,2013-10-18 16:17:00,
2013-10-18 12:22:00,54.9,40.3,22.10,West,270,5.0,16.0,58,0.00,,,0.25,meteohub,2013-10-18 16:22:00,
2013-10-18 12:27:00,55.0,39.6,22.10,North,0,14.0,16.0,56,0.00,,,0.25,meteohub,2013-10-18 16:27:00,
2013-10-18 12:32:00,54.9,39.9,22.11,West,270,9.0,17.0,57,0.00,,,0.25,meteohub,2013-10-18 16:32:00,
2013-10-18 12:37:00,54.5,40.1,22.11,NW,315,11.0,17.0,58,0.00,,,0.25,meteohub,2013-10-18 16:37:00,
2013-10-18 12:42:00,55.0,40.5,22.11,NW,315,4.0,17.0,58,0.00,,,0.25,meteohub,2013-10-18 16:42:00,
2013-10-18 12:47:00,55.9,40.5,22.10,NW,315,7.0,16.0,56,0.00,,,0.25,meteohub,2013-10-18 16:47:00,
2013-10-18 12:52:00,56.5,40.1,22.11,NW,315,9.0,15.0,54,0.00,,,0.25,meteohub,2013-10-18 16:52:00,
2013-10-18 12:57:00,57.0,40.1,22.10,NW,315,11.0,15.0,53,0.00,,,0.25,meteohub,2013-10-18 16:57:00,
2013-10-18 13:02:00,57.7,40.3,22.10,West,270,4.0,15.0,52,0.00,,,0.25,meteohub,2013-10-18 17:02:00,
2013-10-18 13:07:00,58.1,39.6,22.10,NW,315,10.0,11.0,50,0.00,,,0.25,meteohub,2013-10-18 17:07:00,
2013-10-18 13:12:00,57.7,39.2,22.09,NW,315,6.0,13.0,50,0.00,,,0.25,meteohub,2013-10-18 17:12:00,
2013-10-18 13:17:00,57.6,39.0,22.09,NE,45,8.0,13.0,50,0.00,,,0.25,meteohub,2013-10-18 17:17:00,
2013-10-18 13:22:00,57.2,38.7,22.09,NW,315,5.0,13.0,50,0.00,,,0.25,meteohub,2013-10-18 17:22:00,
2013-10-18 13:27:00,56.8,39.4,22.09,North,0,8.0,13.0,52,0.00,,,0.25,meteohub,2013-10-18 17:27:00,
2013-10-18 13:32:00,56.8,39.4,22.09,North,0,5.0,17.0,52,0.00,,,0.25,meteohub,2013-10-18 17:32:00,
2013-10-18 13:37:00,56.7,39.2,22.09,North,0,11.0,17.0,52,0.00,,,0.25,meteohub,2013-10-18 17:37:00,
2013-10-18 13:42:00,56.3,38.8,22.09,NW,315,10.0,17.0,52,0.00,,,0.25,meteohub,2013-10-18 17:42:00,
2013-10-18 13:47:00,56.3,38.8,22.10,North,0,16.0,16.0,52,0.00,,,0.25,meteohub,2013-10-18 17:47:00,
2013-10-18 13:52:00,56.5,39.0,22.09,NW,315,6.0,16.0,52,0.00,,,0.25,meteohub,2013-10-18 17:52:00,
2013-10-18 13:57:00,56.5,39.0,22.09,SW,225,4.0,16.0,52,0.00,,,0.25,meteohub,2013-10-18 17:57:00,
2013-10-18 14:02:00,57.0,39.6,22.09,NW,315,11.0,16.0,52,0.00,,,0.25,meteohub,2013-10-18 18:02:00,
2013-10-18 14:07:00,57.4,39.4,22.10,North,0,12.0,15.0,51,0.00,,,0.25,meteohub,2013-10-18 18:07:00,
2013-10-18 14:12:00,57.6,37.9,22.09,North,0,16.0,16.0,48,0.00,,,0.25,meteohub,2013-10-18 18:12:00,
2013-10-18 14:17:00,57.9,37.8,22.10,North,0,4.0,16.0,47,0.00,,,0.25,meteohub,2013-10-18 18:17:00,
2013-10-18 14:22:00,58.1,36.9,22.09,West,270,5.0,16.0,45,0.00,,,0.25,meteohub,2013-10-18 18:22:00,
2013-10-18 14:27:00,58.6,37.4,22.10,SW,225,9.0,16.0,45,0.00,,,0.25,meteohub,2013-10-18 18:27:00,
2013-10-18 14:32:00,59.0,35.4,22.10,North,0,4.0,11.0,41,0.00,,,0.25,meteohub,2013-10-18 18:32:00,
2013-10-18 14:37:00,59.0,34.2,22.10,NNW,338,11.0,11.0,39,0.00,,,0.25,meteohub,2013-10-18 18:37:00,
2013-10-18 14:42:00,58.6,33.8,22.10,NW,315,11.0,11.0,39,0.00,,,0.25,meteohub,2013-10-18 18:42:00,
2013-10-18 14:47:00,58.5,32.9,22.10,North,0,7.0,13.0,38,0.00,,,0.25,meteohub,2013-10-18 18:47:00,
2013-10-18 14:52:00,58.5,33.6,22.10,NW,315,10.0,15.0,39,0.00,,,0.25,meteohub,2013-10-18 18:52:00,
2013-10-18 14:57:00,58.6,34.3,22.10,NW,315,13.0,15.0,40,0.00,,,0.25,meteohub,2013-10-18 18:57:00,
2013-10-18 15:02:00,58.6,34.3,22.10,NNW,338,11.0,15.0,40,0.00,,,0.25,meteohub,2013-10-18 19:02:00,
2013-10-18 15:07:00,58.6,34.3,22.10,NW,315,8.0,15.0,40,0.00,,,0.25,meteohub,2013-10-18 19:07:00,
2013-10-18 15:12:00,58.6,35.1,22.10,NW,315,11.0,13.0,41,0.00,,,0.25,meteohub,2013-10-18 19:12:00,
2013-10-18 15:17:00,58.5,32.9,22.10,NW,315,8.0,16.0,38,0.00,,,0.25,meteohub,2013-10-18 19:17:00,
2013-10-18 15:22:00,58.5,32.9,22.10,North,0,16.0,16.0,38,0.00,,,0.25,meteohub,2013-10-18 19:22:00,
2013-10-18 15:27:00,58.1,32.5,22.11,NW,315,8.0,16.0,38,0.00,,,0.25,meteohub,2013-10-18 19:27:00,
2013-10-18 15:32:00,57.9,32.5,22.11,North,0,13.0,17.0,38,0.00,,,0.25,meteohub,2013-10-18 19:32:00,
2013-10-18 15:37:00,57.9,33.8,22.10,NW,315,8.0,17.0,40,0.00,,,0.25,meteohub,2013-10-18 19:37:00,
2013-10-18 15:42:00,57.7,32.9,22.11,North,0,11.0,17.0,39,0.00,,,0.25,meteohub,2013-10-18 19:42:00,
2013-10-18 15:47:00,57.6,34.0,22.11,NW,315,5.0,16.0,41,0.00,,,0.25,meteohub,2013-10-18 19:47:00,
2013-10-18 15:52:00,57.6,33.4,22.11,NW,315,8.0,16.0,40,0.00,,,0.25,meteohub,2013-10-18 19:52:00,
2013-10-18 15:57:00,57.7,33.6,22.10,NW,315,8.0,14.0,40,0.00,,,0.25,meteohub,2013-10-18 19:57:00,
2013-10-18 16:02:00,57.6,34.0,22.10,NW,315,9.0,15.0,41,0.00,,,0.25,meteohub,2013-10-18 20:02:00,
2013-10-18 16:07:00,57.6,34.0,22.11,North,0,9.0,15.0,41,0.00,,,0.25,meteohub,2013-10-18 20:07:00,
2013-10-18 16:12:00,57.4,33.8,22.11,NW,315,10.0,15.0,41,0.00,,,0.25,meteohub,2013-10-18 20:12:00,
2013-10-18 16:17:00,57.4,33.8,22.11,NW,315,10.0,14.0,41,0.00,,,0.25,meteohub,2013-10-18 20:17:00,
2013-10-18 16:22:00,57.2,33.6,22.11,NW,315,11.0,14.0,41,0.00,,,0.25,meteohub,2013-10-18 20:22:00,
2013-10-18 16:27:00,57.2,34.3,22.11,NW,315,7.0,13.0,42,0.00,,,0.25,meteohub,2013-10-18 20:27:00,
2013-10-18 16:32:00,57.2,34.3,22.10,NW,315,8.0,13.0,42,0.00,,,0.25,meteohub,2013-10-18 20:32:00,
2013-10-18 16:37:00,57.0,34.7,22.11,West,270,8.0,13.0,43,0.00,,,0.25,meteohub,2013-10-18 20:37:00,
2013-10-18 16:42:00,56.7,34.3,22.11,West,270,9.0,10.0,43,0.00,,,0.25,meteohub,2013-10-18 20:42:00,
2013-10-18 16:47:00,56.5,34.9,22.10,West,270,11.0,11.0,44,0.00,,,0.25,meteohub,2013-10-18 20:47:00,
2013-10-18 16:52:00,56.1,34.5,22.11,West,270,7.0,15.0,44,0.00,,,0.25,meteohub,2013-10-18 20:52:00,
2013-10-18 16:57:00,55.9,34.3,22.11,West,270,8.0,15.0,44,0.00,,,0.25,meteohub,2013-10-18 20:57:00,
2013-10-18 17:02:00,55.9,34.3,22.11,NW,315,9.0,15.0,44,0.00,,,0.25,meteohub,2013-10-18 21:02:00,
2013-10-18 17:07:00,55.8,34.2,22.12,NW,315,5.0,11.0,44,0.00,,,0.25,meteohub,2013-10-18 21:07:00,
2013-10-18 17:12:00,55.6,34.5,22.11,NW,315,7.0,11.0,45,0.00,,,0.25,meteohub,2013-10-18 21:12:00,
2013-10-18 17:17:00,55.4,34.3,22.12,SW,225,3.0,11.0,45,0.00,,,0.25,meteohub,2013-10-18 21:17:00,
2013-10-18 17:22:00,55.2,34.9,22.12,NW,315,8.0,11.0,46,0.00,,,0.25,meteohub,2013-10-18 21:22:00,
2013-10-18 17:27:00,55.0,34.7,22.12,South,180,9.0,9.0,46,0.00,,,0.25,meteohub,2013-10-18 21:27:00,
2013-10-18 17:32:00,54.9,35.1,22.12,North,0,4.0,9.0,47,0.00,,,0.25,meteohub,2013-10-18 21:32:00,
2013-10-18 17:37:00,54.7,34.9,22.12,NW,315,5.0,9.0,47,0.00,,,0.25,meteohub,2013-10-18 21:37:00,
2013-10-18 17:42:00,54.7,34.9,22.12,West,270,3.0,9.0,47,0.00,,,0.25,meteohub,2013-10-18 21:42:00,
2013-10-18 17:47:00,54.5,35.2,22.12,North,0,3.0,8.0,48,0.00,,,0.25,meteohub,2013-10-18 21:47:00,
2013-10-18 17:52:00,54.3,35.1,22.12,West,270,5.0,8.0,48,0.00,,,0.25,meteohub,2013-10-18 21:52:00,
2013-10-18 17:57:00,54.1,34.9,22.13,NW,315,4.0,6.0,48,0.00,,,0.25,meteohub,2013-10-18 21:57:00,
2013-10-18 18:02:00,54.1,34.9,22.12,NW,315,4.0,6.0,48,0.00,,,0.25,meteohub,2013-10-18 22:02:00,
2013-10-18 18:07:00,54.0,34.7,22.13,NW,315,2.0,5.0,48,0.00,,,0.25,meteohub,2013-10-18 22:07:00,
2013-10-18 18:12:00,53.6,34.3,22.13,NW,315,2.0,5.0,48,0.00,,,0.25,meteohub,2013-10-18 22:12:00,
2013-10-18 18:17:00,53.4,35.2,22.13,NW,315,2.0,5.0,50,0.00,,,0.25,meteohub,2013-10-18 22:17:00,
2013-10-18 18:22:00,53.1,34.9,22.14,SE,135,2.0,4.0,50,0.00,,,0.25,meteohub,2013-10-18 22:22:00,
2013-10-18 18:27:00,52.7,35.1,22.14,SW,225,2.0,2.0,51,0.00,,,0.25,meteohub,2013-10-18 22:27:00,
2013-10-18 18:32:00,52.3,34.7,22.13,West,270,2.0,2.0,51,0.00,,,0.25,meteohub,2013-10-18 22:32:00,
2013-10-18 18:37:00,52.2,35.1,22.14,West,270,2.0,2.0,52,0.00,,,0.25,meteohub,2013-10-18 22:37:00,
2013-10-18 18:42:00,51.8,35.2,22.14,SW,225,2.0,2.0,53,0.00,,,0.25,meteohub,2013-10-18 22:42:00,
2013-10-18 18:47:00,51.4,35.8,22.14,SW,225,0.0,2.0,55,0.00,,,0.25,meteohub,2013-10-18 22:47:00,
2013-10-18 18:52:00,51.1,35.4,22.15,West,270,1.0,2.0,55,0.00,,,0.25,meteohub,2013-10-18 22:52:00,
2013-10-18 18:57:00,50.9,35.8,22.15,SW,225,2.0,2.0,56,0.00,,,0.25,meteohub,2013-10-18 22:57:00,
2013-10-18 19:02:00,50.5,36.3,22.15,South,180,1.0,2.0,58,0.00,,,0.25,meteohub,2013-10-18 23:02:00,
2013-10-18 19:07:00,50.4,36.5,22.16,North,0,2.0,2.0,59,0.00,,,0.25,meteohub,2013-10-18 23:07:00,
2013-10-18 19:13:00,50.0,36.7,22.16,SW,225,2.0,2.0,60,0.00,,,0.25,meteohub,2013-10-18 23:13:00,
2013-10-18 19:18:00,49.5,37.0,22.15,SW,225,0.0,2.0,62,0.00,,,0.25,meteohub,2013-10-18 23:18:00,
2013-10-18 19:23:00,49.3,36.9,22.15,SW,225,0.0,2.0,62,0.00,,,0.25,meteohub,2013-10-18 23:23:00,
2013-10-18 19:28:00,49.1,37.0,22.16,SW,225,0.0,2.0,63,0.00,,,0.25,meteohub,2013-10-18 23:28:00,
2013-10-18 19:33:00,48.7,37.0,22.16,South,180,1.0,2.0,64,0.00,,,0.25,meteohub,2013-10-18 23:33:00,
2013-10-18 19:38:00,48.4,37.2,22.16,South,180,2.0,2.0,65,0.00,,,0.25,meteohub,2013-10-18 23:38:00,
2013-10-18 19:43:00,48.0,37.6,22.17,SE,135,2.0,2.0,67,0.00,,,0.25,meteohub,2013-10-18 23:43:00,
2013-10-18 19:48:00,47.5,37.8,22.16,SE,135,2.0,2.0,69,0.00,,,0.25,meteohub,2013-10-18 23:48:00,
2013-10-18 19:53:00,47.1,37.8,22.17,SE,135,2.0,2.0,70,0.00,,,0.25,meteohub,2013-10-18 23:53:00,
2013-10-18 19:58:00,46.6,37.4,22.17,SW,225,2.0,2.0,70,0.00,,,0.25,meteohub,2013-10-18 23:58:00,
2013-10-18 20:04:00,46.4,37.9,22.17,East,90,1.0,2.0,72,0.00,,,0.25,meteohub,2013-10-19 00:04:00,
2013-10-18 20:09:00,46.2,37.4,22.17,North,0,0.0,2.0,71,0.00,,,0.25,meteohub,2013-10-19 00:09:00,
2013-10-18 20:14:00,46.2,37.4,22.17,East,90,2.0,3.0,71,0.00,,,0.25,meteohub,2013-10-19 00:14:00,
2013-10-18 20:19:00,46.0,37.2,22.17,South,180,2.0,3.0,71,0.00,,,0.25,meteohub,2013-10-19 00:19:00,
2013-10-18 20:24:00,45.7,37.2,22.17,SE,135,2.0,3.0,72,0.00,,,0.25,meteohub,2013-10-19 00:24:00,
2013-10-18 20:29:00,45.5,37.4,22.17,SE,135,2.0,2.0,73,0.00,,,0.25,meteohub,2013-10-19 00:29:00,
2013-10-18 20:34:00,45.3,37.2,22.17,East,90,2.0,3.0,73,0.00,,,0.25,meteohub,2013-10-19 00:34:00,
2013-10-18 20:39:00,45.1,37.0,22.17,South,180,2.0,3.0,73,0.00,,,0.25,meteohub,2013-10-19 00:39:00,
2013-10-18 20:44:00,45.1,37.0,22.17,South,180,2.0,3.0,73,0.00,,,0.25,meteohub,2013-10-19 00:44:00,
2013-10-18 20:49:00,44.8,36.7,22.17,SW,225,2.0,3.0,73,0.00,,,0.25,meteohub,2013-10-19 00:49:00,
2013-10-18 20:54:00,44.8,37.0,22.18,East,90,1.0,2.0,74,0.00,,,0.25,meteohub,2013-10-19 00:54:00,
2013-10-18 20:59:00,44.4,37.4,22.18,West,270,3.0,3.0,76,0.00,,,0.25,meteohub,2013-10-19 00:59:00,
2013-10-18 21:05:00,44.1,37.0,22.18,South,180,2.0,3.0,76,0.00,,,0.25,meteohub,2013-10-19 01:05:00,
2013-10-18 21:10:00,44.1,37.4,22.18,South,180,2.0,3.0,77,0.00,,,0.25,meteohub,2013-10-19 01:10:00,
2013-10-18 21:15:00,44.1,37.6,22.19,East,90,1.0,2.0,78,0.00,,,0.25,meteohub,2013-10-19 01:15:00,
2013-10-18 21:20:00,43.7,37.2,22.19,SE,135,2.0,2.0,78,0.00,,,0.25,meteohub,2013-10-19 01:20:00,
2013-10-18 21:25:00,43.7,37.6,22.19,SE,135,2.0,2.0,79,0.00,,,0.25,meteohub,2013-10-19 01:25:00,
2013-10-18 21:30:00,43.5,37.4,22.19,South,180,2.0,2.0,79,0.00,,,0.25,meteohub,2013-10-19 01:30:00,
2013-10-18 21:35:00,43.5,37.4,22.19,SE,135,2.0,2.0,79,0.00,,,0.25,meteohub,2013-10-19 01:35:00,
2013-10-18 21:40:00,43.3,37.2,22.18,South,180,2.0,2.0,79,0.00,,,0.25,meteohub,2013-10-19 01:40:00,
2013-10-18 21:45:00,43.2,37.4,22.18,East,90,2.0,2.0,80,0.00,,,0.25,meteohub,2013-10-19 01:45:00,
2013-10-18 21:50:00,43.0,37.2,22.19,East,90,1.0,2.0,80,0.00,,,0.25,meteohub,2013-10-19 01:50:00,
2013-10-18 21:55:00,42.8,37.0,22.19,SW,225,2.0,2.0,80,0.00,,,0.25,meteohub,2013-10-19 01:55:00,
2013-10-18 22:00:00,42.6,37.2,22.19,South,180,0.0,2.0,81,0.00,,,0.25,meteohub,2013-10-19 02:00:00,
2013-10-18 22:06:00,42.4,37.4,22.19,NE,45,0.0,2.0,82,0.00,,,0.25,meteohub,2013-10-19 02:06:00,
2013-10-18 22:11:00,42.1,37.0,22.19,SE,135,2.0,2.0,82,0.00,,,0.25,meteohub,2013-10-19 02:11:00,
2013-10-18 22:16:00,41.9,36.9,22.19,SE,135,2.0,2.0,82,0.00,,,0.25,meteohub,2013-10-19 02:16:00,
2013-10-18 22:21:00,41.7,36.9,22.19,West,270,1.0,2.0,83,0.00,,,0.25,meteohub,2013-10-19 02:21:00,
2013-10-18 22:26:00,41.5,36.7,22.19,South,180,2.0,2.0,83,0.00,,,0.25,meteohub,2013-10-19 02:26:00,
2013-10-18 22:31:00,41.5,36.7,22.19,East,90,2.0,2.0,83,0.00,,,0.25,meteohub,2013-10-19 02:31:00,
2013-10-18 22:36:00,41.5,37.0,22.19,South,180,0.0,2.0,84,0.00,,,0.25,meteohub,2013-10-19 02:36:00,
2013-10-18 22:41:00,41.4,36.9,22.19,SE,135,2.0,2.0,84,0.00,,,0.25,meteohub,2013-10-19 02:41:00,
2013-10-18 22:46:00,41.4,36.9,22.19,East,90,2.0,2.0,84,0.00,,,0.25,meteohub,2013-10-19 02:46:00,
2013-10-18 22:51:00,41.2,36.7,22.19,NW,315,2.0,2.0,84,0.00,,,0.25,meteohub,2013-10-19 02:51:00,
2013-10-18 22:57:00,40.8,37.0,22.19,NW,315,0.0,2.0,86,0.00,,,0.25,meteohub,2013-10-19 02:57:00,
2013-10-18 23:02:00,40.8,37.0,22.19,SE,135,1.0,2.0,86,0.00,,,0.25,meteohub,2013-10-19 03:02:00,
2013-10-18 23:07:00,40.6,36.9,22.20,SE,135,1.0,2.0,86,0.00,,,0.25,meteohub,2013-10-19 03:07:00,
2013-10-18 23:12:00,40.5,36.7,22.19,NW,315,1.0,2.0,86,0.00,,,0.25,meteohub,2013-10-19 03:12:00,
2013-10-18 23:17:00,40.3,36.5,22.19,East,90,2.0,2.0,86,0.00,,,0.25,meteohub,2013-10-19 03:17:00,
2013-10-18 23:22:00,40.1,36.3,22.19,SW,225,2.0,2.0,86,0.00,,,0.25,meteohub,2013-10-19 03:22:00,
2013-10-18 23:27:00,39.9,36.3,22.20,West,270,2.0,2.0,87,0.00,,,0.25,meteohub,2013-10-19 03:27:00,
2013-10-18 23:32:00,39.9,36.3,22.20,SE,135,0.0,2.0,87,0.00,,,0.25,meteohub,2013-10-19 03:32:00,
2013-10-18 23:37:00,39.7,36.1,22.20,East,90,2.0,2.0,87,0.00,,,0.25,meteohub,2013-10-19 03:37:00,
2013-10-18 23:42:00,39.4,35.8,22.20,SE,135,2.0,2.0,87,0.00,,,0.25,meteohub,2013-10-19 03:42:00,
2013-10-18 23:47:00,39.2,35.6,22.20,SE,135,2.0,2.0,87,0.00,,,0.25,meteohub,2013-10-19 03:47:00,
2013-10-18 23:52:00,39.2,36.0,22.20,East,90,2.0,2.0,88,0.00,,,0.25,meteohub,2013-10-19 03:52:00,
2013-10-18 23:57:00,39.2,36.0,22.20,NE,45,1.0,3.0,88,0.00,,,0.25,meteohub,2013-10-19 03:57:00,